WV5G-13 Weather Reports


Display with metric or nautical units.
time (UTC)temp
F
wind
direction
speed
MPH
gust
MPH
rain 1hr
in
rain 24hr
in
rain mn
in
humidity
%
barometer
mb
20260502192633 70 248 4.0 12.0 0.00 0.00 0.00 21 1018.6
20260502192132 71 249 6.0 10.0 0.00 0.00 0.00 21 1019.0
20260502191628 69 214 5.0 12.0 0.00 0.00 0.00 20 1019.0
20260502191126 69 296 3.0 10.0 0.00 0.00 0.00 22 1018.9
20260502190623 69 304 12.0 13.0 0.00 0.00 0.00 20 1019.1
20260502190120 69 296 7.0 11.0 0.00 0.00 0.00 22 1018.9
20260502185615 69 223 2.0 9.0 0.00 0.00 0.00 23 1019.2
20260502185112 69 253 8.0 11.0 0.00 0.00 0.00 23 1019.2
20260502184608 69 218 5.0 9.0 0.00 0.00 0.00 20 1019.2
20260502184103 69 160 3.0 7.0 0.00 0.00 0.00 20 1019.2
20260502183600 68 168 9.0 10.0 0.00 0.00 0.00 21 1019.4
20260502183056 69 297 3.0 11.0 0.00 0.00 0.00 25 1019.6
20260502182552 70 255 7.0 9.0 0.00 0.00 0.00 22 1019.6
20260502182048 69 251 5.0 11.0 0.00 0.00 0.00 23 1019.4
20260502181546 68 141 6.0 14.0 0.00 0.00 0.00 22 1019.5
20260502181044 68 156 8.0 11.0 0.00 0.00 0.00 22 1019.7
20260502180541 67 179 7.0 13.0 0.00 0.00 0.00 23 1019.6
20260502170500 65 300 5.0 13.0 0.00 0.00 0.00 36 1020.1
20260502163944 64 242 4.0 9.0 0.00 0.00 0.00 41 1020.5
20260502163439 64 315 4.0 11.0 0.00 0.00 0.00 39 1020.5
20260502162937 64 318 11.0 12.0 0.00 0.00 0.00 40 1020.2
20260502162434 63 307 3.0 14.0 0.00 0.00 0.00 41 1020.5
20260502161931 63 251 4.0 9.0 0.00 0.00 0.00 43 1020.4
20260502161427 63 300 5.0 11.0 0.00 0.00 0.00 42 1020.4
20260502160925 63 324 9.0 13.0 0.00 0.00 0.00 43 1020.2
20260502160423 62 304 6.0 11.0 0.00 0.00 0.00 45 1020.5
20260502151855 59 256 4.0 11.0 0.00 0.00 0.00 54 1020.6
20260502151351 58 314 7.0 9.0 0.00 0.00 0.00 54 1020.7
20260502150849 58 326 8.0 10.0 0.00 0.00 0.00 56 1020.5
20260502150345 57 296 5.0 11.0 0.00 0.00 0.00 57 1020.4
20260502130734 43 256 4.0 8.0 0.00 0.00 0.00 86 1019.9
20260502130231 42 248 5.0 9.0 0.00 0.00 0.00 87 1020.0
20260502123717 42 274 2.0 5.0 0.00 0.00 0.00 85 1019.6
20260502123214 41 254 3.0 6.0 0.00 0.00 0.00 86 1019.5
20260502122710 41 253 4.0 7.0 0.00 0.00 0.00 86 1019.6
20260502122207 41 300 3.0 6.0 0.00 0.00 0.00 87 1019.5
20260502121705 40 263 5.0 7.0 0.00 0.00 0.00 88 1019.4
20260502121203 40 243 2.0 6.0 0.00 0.00 0.00 88 1019.4
20260502120659 39 287 0.0 5.0 0.00 0.00 0.00 89 1019.5
20260502120156 39 318 1.0 3.0 0.00 0.00 0.00 89 1019.4
20260502115654 39 277 3.0 4.0 0.00 0.00 0.00 89 1019.2
20260502115149 39 253 4.0 6.0 0.00 0.00 0.00 89 1019.4
20260502114646 39 256 3.0 5.0 0.00 0.00 0.00 89 1019.5
20260502114143 38 265 3.0 5.0 0.00 0.00 0.00 90 1019.2
20260502113640 38 241 4.0 5.0 0.00 0.00 0.00 90 1019.1
20260502113139 37 231 2.0 4.0 0.00 0.00 0.00 90 1019.2
20260502112636 37 244 2.0 4.0 0.00 0.00 0.00 89 1019.2
20260502112133 38 202 2.0 9.0 0.00 0.00 0.00 89 1019.2
20260502111631 38 247 5.0 10.0 0.00 0.00 0.00 88 1019.1
20260502111128 39 250 3.0 7.0 0.00 0.00 0.00 89 1019.4
20260502110626 38 228 2.0 6.0 0.00 0.00 0.00 88 1019.2
20260502110123 38 254 4.0 8.0 0.00 0.00 0.00 87 1019.4
20260502105621 40 253 5.0 7.0 0.00 0.00 0.00 87 1019.4
20260502105117 39 254 3.0 6.0 0.00 0.00 0.00 88 1019.1
20260502104615 39 243 4.0 8.0 0.00 0.00 0.00 88 1019.2
20260502104112 40 258 2.0 9.0 0.00 0.00 0.00 88 1019.4
20260502103609 40 264 5.0 8.0 0.00 0.00 0.00 89 1019.2
20260502103108 38 300 3.0 7.0 0.00 0.00 0.00 90 1019.2
20260502102604 37 235 4.0 7.0 0.00 0.00 0.00 89 1019.2
20260502102101 37 245 4.0 6.0 0.00 0.00 0.00 89 1019.0
20260502101559 37 241 4.0 5.0 0.00 0.00 0.00 89 1019.4
20260502101057 36 232 3.0 4.0 0.00 0.00 0.00 88 1019.2
20260502100555 36 196 0.0 3.0 0.00 0.00 0.00 87 1019.2
20260502091530 42 0 3.0 5.0 0.00 0.00 0.00 86 1019.0
20260502091027 41 314 2.0 3.0 0.00 0.00 0.00 87 1019.0
20260502090524 41 318 2.0 3.0 0.00 0.00 0.00 87 1018.7
20260502071418 40 259 1.0 2.0 0.00 0.00 0.00 85 1019.2
20260502070916 40 244 2.0 2.0 0.00 0.00 0.00 85 1019.5
20260502070414 39 157 0.0 2.0 0.00 0.00 0.00 84 1019.6
20260502065912 39 216 0.0 3.0 0.00 0.00 0.00 84 1019.5
20260502065410 39 228 2.0 2.0 0.00 0.00 0.00 84 1019.4
20260502064908 40 147 1.0 3.0 0.00 0.00 0.00 83 1019.6
20260502064406 41 180 1.0 3.0 0.00 0.00 0.00 83 1019.7
20260502063903 42 147 0.0 3.0 0.00 0.00 0.00 83 1019.4
20260502063400 42 220 1.0 2.0 0.00 0.00 0.00 82 1019.4
20260502062858 43 241 2.0 3.0 0.00 0.00 0.00 82 1019.6
20260502062355 44 230 2.0 5.0 0.00 0.00 0.00 82 1019.5
20260502061854 44 11 1.0 3.0 0.00 0.00 0.00 82 1019.7
20260502061351 44 331 2.0 3.0 0.00 0.00 0.00 82 1019.9
20260502060847 44 33 2.0 3.0 0.00 0.00 0.00 81 1019.6
20260502060342 44 8 0.0 3.0 0.00 0.00 0.00 81 1019.5
20260502055840 45 326 0.0 3.0 0.00 0.00 0.00 80 1019.6
20260502055338 45 323 2.0 3.0 0.00 0.00 0.00 80 1019.4
20260502054837 45 256 1.0 3.0 0.00 0.00 0.00 79 1019.5
20260502054334 46 280 1.0 4.0 0.00 0.00 0.00 80 1019.5
20260502053831 45 299 2.0 5.0 0.00 0.00 0.00 81 1019.6
20260502053329 44 309 1.0 4.0 0.00 0.00 0.00 82 1019.6
20260502052826 44 334 1.0 2.0 0.00 0.00 0.00 82 1019.7
20260502052324 44 353 0.0 3.0 0.00 0.00 0.00 82 1019.5
20260502051821 44 305 1.0 2.0 0.00 0.00 0.00 82 1019.8
20260502051320 44 12 1.0 2.0 0.00 0.00 0.00 82 1019.8
20260502050816 44 340 0.0 2.0 0.00 0.00 0.00 82 1019.5
20260502050313 44 334 0.0 2.0 0.00 0.00 0.00 81 1019.5
20260502045810 45 315 0.0 2.0 0.00 0.00 0.00 81 1019.5
20260502045306 45 308 0.0 2.0 0.00 0.00 0.00 80 1019.4
20260502044804 45 350 2.0 3.0 0.00 0.00 0.00 80 1019.1
20260502044259 45 29 2.0 2.0 0.00 0.00 0.00 80 1019.2
20260502043757 44 4 1.0 3.0 0.00 0.00 0.00 80 1019.2
20260502043254 44 335 1.0 2.0 0.00 0.00 0.00 80 1019.1
20260502042754 44 344 1.0 1.0 0.00 0.00 0.00 81 1019.1
20260502042251 44 269 0.0 1.0 0.00 0.00 0.00 81 1019.1
20260502041749 44 186 0.0 2.0 0.00 0.00 0.00 80 1019.2
20260502041246 45 5 0.0 1.0 0.00 0.00 0.00 80 1019.1
20260502040743 45 58 0.0 2.0 0.00 0.00 0.00 80 1019.1
20260502040240 45 65 0.0 1.0 0.00 0.00 0.00 80 1018.9
20260502035735 45 38 0.0 0.0 0.00 0.00 0.00 80 1019.0
20260502035232 45 38 0.0 0.0 0.00 0.00 0.00 79 1019.0
20260502034730 45 38 0.0 1.0 0.00 0.00 0.00 78 1019.2
20260502034228 45 103 0.0 0.0 0.00 0.00 0.00 78 1019.1
20260502033726 46 131 0.0 2.0 0.00 0.00 0.00 77 1019.0
20260502033223 47 89 0.0 1.0 0.00 0.00 0.00 77 1019.1
20260502032720 47 49 0.0 3.0 0.00 0.00 0.00 76 1019.2
20260502032215 47 15 2.0 3.0 0.00 0.00 0.00 76 1019.1
20260502031714 47 341 1.0 2.0 0.00 0.00 0.00 76 1019.1
20260502031212 47 340 2.0 3.0 0.00 0.00 0.00 75 1019.1
20260502030710 47 26 2.0 3.0 0.00 0.00 0.00 75 1018.9
20260502030208 48 62 2.0 3.0 0.00 0.00 0.00 74 1019.0
20260502025704 48 43 1.0 2.0 0.00 0.00 0.00 74 1018.9
20260502025203 48 25 0.0 2.0 0.00 0.00 0.00 73 1019.1
20260502024700 48 355 1.0 3.0 0.00 0.00 0.00 73 1019.0
20260502024158 49 16 3.0 4.0 0.00 0.00 0.00 72 1018.7
20260502023656 49 18 3.0 4.0 0.00 0.00 0.00 72 1018.8
20260502023153 50 343 2.0 4.0 0.00 0.00 0.00 71 1018.8
20260502022650 50 344 2.0 4.0 0.00 0.00 0.00 71 1018.8
20260502022147 50 345 2.0 4.0 0.00 0.00 0.00 71 1018.7
20260502021644 50 333 3.0 5.0 0.00 0.00 0.00 70 1018.7
20260502021141 50 2 4.0 6.0 0.00 0.00 0.00 70 1018.6
20260502020638 50 353 3.0 7.0 0.00 0.00 0.00 69 1018.4
20260502020135 51 3 3.0 7.0 0.00 0.00 0.00 68 1018.4
20260502015633 51 6 3.0 6.0 0.00 0.00 0.00 68 1018.5
20260502015129 51 349 3.0 7.0 0.00 0.00 0.00 68 1018.2
20260502014627 51 359 3.0 6.0 0.00 0.00 0.00 68 1017.9
20260502014124 51 13 3.0 6.0 0.00 0.00 0.00 68 1018.1
20260502013620 51 2 5.0 8.0 0.00 0.00 0.00 67 1018.0
20260502013115 51 344 4.0 6.0 0.00 0.00 0.00 68 1017.8
20260502012613 51 353 3.0 8.0 0.00 0.00 0.00 67 1017.7
20260502012111 52 359 7.0 8.0 0.00 0.00 0.00 66 1017.8
20260502011607 53 15 4.0 7.0 0.00 0.00 0.00 65 1017.5
20260502011103 53 2 4.0 7.0 0.00 0.00 0.00 65 1017.6
20260502010601 53 347 5.0 9.0 0.00 0.00 0.00 64 1017.6
20260502010057 53 342 4.0 9.0 0.00 0.00 0.00 64 1017.6
20260502005555 53 343 7.0 12.0 0.00 0.00 0.00 63 1017.5
20260502005052 54 332 5.0 11.0 0.00 0.00 0.00 62 1017.5
20260502004542 55 321 6.0 11.0 0.00 0.00 0.00 62 1017.4
20260502004039 55 309 5.0 10.0 0.00 0.00 0.00 61 1017.2
20260502003538 55 334 11.0 12.0 0.00 0.00 0.00 61 1017.4
20260502003034 55 336 6.0 13.0 0.00 0.00 0.00 62 1017.2
20260502002530 55 333 5.0 13.0 0.00 0.00 0.00 61 1017.1
20260502002028 56 333 4.0 10.0 0.00 0.00 0.00 59 1017.1
20260502001525 55 357 5.0 5.0 0.00 0.00 0.00 60 1017.1
20260502001022 57 325 6.0 11.0 0.00 0.00 0.00 57 1017.1
20260502000521 57 318 10.0 19.0 0.00 0.00 0.00 56 1017.0
20260502000017 57 5 5.0 9.0 0.00 0.00 0.00 56 1017.2
20260501235513 57 287 3.0 7.0 0.00 0.00 0.00 58 1017.0
20260501235009 57 287 7.0 8.0 0.00 0.00 0.00 57 1017.4
20260501234505 57 23 4.0 9.0 0.00 0.00 0.00 57 1017.1
20260501234003 57 18 4.0 8.0 0.00 0.00 0.00 56 1017.1
20260501233501 56 311 3.0 6.0 0.00 0.00 0.00 59 1016.9
20260501232956 55 347 4.0 7.0 0.00 0.00 0.00 60 1017.0
20260501232454 55 54 4.0 5.0 0.00 0.00 0.00 59 1017.1
20260501231950 55 325 3.0 9.0 0.00 0.00 0.00 58 1017.2
20260501231449 56 23 3.0 6.0 0.00 0.00 0.00 57 1017.2
20260501230947 55 345 4.0 7.0 0.00 0.00 0.00 60 1017.2
20260501230446 55 317 13.0 13.0 0.00 0.00 0.00 61 1017.2
20260501225943 55 317 13.0 13.0 0.00 0.00 0.00 62 1017.6
20260501225440 55 317 13.0 13.0 0.00 0.00 0.00 63 1017.4
20260501224936 54 317 13.0 13.0 0.00 0.00 0.00 64 1017.6
20260501224434 54 317 13.0 13.0 0.00 0.00 0.00 65 1017.2
20260501223931 54 317 13.0 13.0 0.00 0.00 0.00 65 1017.1
20260501223427 54 317 13.0 13.0 0.00 0.00 0.00 67 1017.2
20260501222922 54 317 13.0 13.0 0.00 0.00 0.00 66 1017.5
20260501222420 54 317 13.0 13.0 0.00 0.00 0.00 66 1017.5
20260501221916 53 317 13.0 13.0 0.00 0.00 0.00 66 1017.5
20260501221414 53 317 13.0 13.0 0.00 0.00 0.00 67 1017.5
20260501220911 54 317 13.0 13.0 0.00 0.00 0.00 67 1017.2
20260501220409 54 317 13.0 13.0 0.00 0.00 0.00 67 1017.2
20260501215904 53 317 13.0 13.0 0.00 0.00 0.00 69 1017.2
20260501215402 53 317 13.0 13.0 0.00 0.00 0.00 69 1017.1
20260501214857 53 317 13.0 13.0 0.00 0.00 0.00 71 1017.2
20260501214352 53 317 13.0 13.0 0.00 0.00 0.00 71 1017.5
20260501213848 53 317 13.0 13.0 0.00 0.00 0.00 72 1017.6
20260501213345 52 317 13.0 13.0 0.00 0.00 0.00 71 1017.5
20260501212840 52 317 13.0 13.0 0.00 0.00 0.00 72 1017.5
20260501212337 52 317 13.0 13.0 0.00 0.00 0.00 71 1017.7
20260501211834 52 317 13.0 13.0 0.00 0.00 0.00 72 1017.6
20260501211332 52 317 13.0 13.0 0.00 0.00 0.00 70 1017.8
20260501210828 51 317 13.0 13.0 0.00 0.00 0.00 69 1017.7
20260501210325 52 317 13.0 13.0 0.00 0.00 0.00 72 1017.8
20260501205816 52 317 13.0 13.0 0.00 0.00 0.00 71 1017.8
20260501205314 52 317 13.0 13.0 0.00 0.00 0.00 71 1017.8
20260501204810 52 317 13.0 13.0 0.00 0.00 0.00 70 1017.9
20260501204307 52 317 13.0 13.0 0.00 0.00 0.00 70 1018.0
20260501203803 53 317 13.0 13.0 0.00 0.00 0.00 70 1018.1
20260501203301 52 317 13.0 13.0 0.00 0.00 0.00 68 1018.0
20260501202757 52 317 13.0 13.0 0.00 0.00 0.00 67 1018.1
20260501202254 52 317 13.0 13.0 0.00 0.00 0.00 69 1017.9
20260501201751 53 317 13.0 13.0 0.00 0.00 0.00 68 1017.9
20260501201248 53 317 13.0 13.0 0.00 0.00 0.00 66 1018.1
20260501200744 53 317 13.0 13.0 0.00 0.00 0.00 64 1017.9
20260501200242 53 317 13.0 13.0 0.00 0.00 0.00 62 1018.0
20260501195739 53 317 13.0 13.0 0.00 0.00 0.00 61 1018.0
20260501195235 53 317 13.0 13.0 0.00 0.00 0.00 60 1017.8
20260501194731 53 317 13.0 13.0 0.00 0.00 0.00 63 1018.0
20260501194227 53 317 13.0 13.0 0.00 0.00 0.00 63 1017.9
20260501193723 53 317 13.0 13.0 0.00 0.00 0.00 63 1018.2
20260501193222 53 317 13.0 13.0 0.00 0.00 0.00 63 1018.1